{"data":{"norad_id":66656,"intl_designator":"2025-274G","name":"2025-274G","alt_names":[],"object_type":"PAYLOAD","status":"ACTIVE","operator":null,"country":"SKOR","launch_date":"2025-11-26","launch_site_code":"NSC","launch_vehicle":null,"mission":null,"orbit_class":"UNKNOWN","rcs_meters":null,"size_class":null,"mass_kg":null,"dimensions":null,"purposes":[],"wikipedia_slug":null,"has_3d_model":false,"image_url":null,"decayed_at":null,"tle_current":{"epoch":"2026-09-18T06:28:14.183040Z","epoch_age_seconds":313707,"freshness":"STALE","line1":"1 66656U 25274G   26261.26960860  .00001688  00000+0  16469-3 0  9994","line2":"2 66656  97.7481 189.1754 0014970  52.2550 308.0023 14.93692814 44115","mean_motion":14.93692814,"eccentricity":0.001497,"inclination_deg":97.7481,"raan_deg":189.1754,"arg_perigee_deg":52.255,"mean_anomaly_deg":308.0023,"bstar":0.00016469,"rev_number":4411,"period_min":96.405364376346,"perigee_km":576.00713112024,"apogee_km":596.85905397734,"semimajor_km":6964.5700925488,"source":"CELESTRAK","updated_at":"2026-09-21T09:00:16.116527Z"}}}